FW7862 Weather Reports


time (UTC)temp
C
wind
direction
speed
KPH
gust
KPH
rain 1hr
cm
rain 24hr
cm
rain mn
cm
humidity
%
barometer
mb
20260504141333 20 301 3.2 3.2 0.00 0.00 0.00 71 1018.3
20260504140829 20 237 4.8 4.8 0.00 0.00 0.00 72 1018.3
20260504140325 19 330 0.0 0.0 0.00 0.00 0.00 76 1018.3
20260504130754 15 341 0.0 0.0 0.00 0.00 0.00 99 1018.5
20260504130250 14 341 0.0 0.0 0.00 0.00 0.00 99 1018.3
20260504120214 11 341 0.0 0.0 0.00 0.00 0.00 99 1017.9
20260504110641 10 340 0.0 0.0 0.00 0.00 0.00 99 1017.7
20260504110137 10 340 0.0 0.0 0.00 0.00 0.00 99 1017.8
20260504100603 10 340 0.0 0.0 0.00 0.00 0.00 99 1017.7
20260504081956 12 340 0.0 0.0 0.00 0.00 0.00 99 1017.5
20260504081454 12 340 0.0 0.0 0.00 0.00 0.00 99 1017.8
20260504080949 12 340 0.0 0.0 0.00 0.00 0.00 99 1017.9
20260504080446 12 340 0.0 0.0 0.00 0.00 0.00 99 1017.8
20260504050253 12 340 0.0 0.0 0.00 0.00 0.00 99 1019.2
20260504045750 12 341 0.0 0.0 0.00 0.00 0.00 99 1019.1
20260504045244 12 341 0.0 0.0 0.00 0.00 0.00 99 1019.0
20260504044742 13 341 0.0 0.0 0.00 0.00 0.00 99 1019.1
20260504044239 13 340 0.0 0.0 0.00 0.00 0.00 99 1019.2
20260504043736 13 340 0.0 0.0 0.00 0.00 0.00 99 1019.1
20260504043233 13 340 0.0 0.0 0.00 0.00 0.00 99 1019.1
20260504042732 13 340 0.0 0.0 0.00 0.00 0.00 99 1019.0
20260504042227 13 340 0.0 0.0 0.00 0.00 0.00 99 1019.2
20260504041723 13 340 0.0 0.0 0.00 0.00 0.00 99 1019.3
20260504041220 13 340 0.0 0.0 0.00 0.00 0.00 99 1019.1
20260504040716 13 340 0.0 0.0 0.00 0.00 0.00 99 1019.3
20260504040214 13 340 0.0 0.0 0.00 0.00 0.00 99 1019.2
20260504035710 13 340 0.0 0.0 0.00 0.00 0.00 99 1019.2
20260504035208 13 340 0.0 0.0 0.00 0.00 0.00 98 1019.0
20260504034705 13 340 0.0 0.0 0.00 0.00 0.00 98 1019.1
20260504034202 13 340 0.0 0.0 0.00 0.00 0.00 98 1019.3
20260504033659 13 340 0.0 0.0 0.00 0.00 0.00 98 1019.1
20260504033156 13 340 0.0 0.0 0.00 0.00 0.00 97 1019.1
20260504032653 14 340 0.0 0.0 0.00 0.00 0.00 97 1019.2
20260504032151 14 340 0.0 0.0 0.00 0.00 0.00 97 1019.2
20260504031647 14 340 0.0 0.0 0.00 0.00 0.00 96 1019.0
20260504031144 14 340 0.0 0.0 0.00 0.00 0.00 96 1019.1
20260504030640 15 340 0.0 0.0 0.00 0.00 0.00 96 1019.1
20260504030137 14 340 0.0 0.0 0.00 0.00 0.00 95 1019.0
20260504025634 15 340 0.0 0.0 0.00 0.00 0.00 95 1019.2
20260504025131 15 340 0.0 0.0 0.00 0.00 0.00 95 1019.2
20260504024628 15 340 0.0 0.0 0.00 0.00 0.00 94 1019.0
20260504024124 15 340 0.0 0.0 0.00 0.00 0.00 93 1018.9
20260504023621 15 340 0.0 0.0 0.00 0.00 0.00 93 1018.9
20260504023117 15 340 0.0 0.0 0.00 0.00 0.00 93 1019.0
20260504022614 15 340 0.0 0.0 0.00 0.00 0.00 92 1019.0
20260504022109 15 340 0.0 0.0 0.00 0.00 0.00 91 1018.8
20260504021608 15 340 0.0 0.0 0.00 0.00 0.00 91 1018.9
20260504021104 15 340 0.0 0.0 0.00 0.00 0.00 91 1018.8
20260504020601 16 340 0.0 0.0 0.00 0.00 0.00 90 1018.8
20260504020057 16 340 0.0 0.0 0.00 0.00 0.00 89 1018.3
20260504015554 16 340 0.0 0.0 0.00 0.00 0.00 88 1018.5
20260504015050 16 340 0.0 0.0 0.00 0.00 0.00 87 1018.6
20260504014546 16 340 0.0 0.0 0.00 0.00 0.00 86 1018.3
20260504014044 16 340 0.0 0.0 0.00 0.00 0.00 86 1018.3
20260504013541 17 340 0.0 0.0 0.00 0.00 0.00 85 1018.3
20260504013038 17 340 0.0 0.0 0.00 0.00 0.00 83 1018.4
20260504012535 17 340 0.0 0.0 0.00 0.00 0.00 82 1018.2
20260504012033 17 340 0.0 0.0 0.00 0.00 0.00 81 1018.3
20260504011530 17 340 0.0 0.0 0.00 0.00 0.00 80 1018.3
20260504011026 17 340 0.0 0.0 0.00 0.00 0.00 78 1018.1
20260504010522 17 340 0.0 0.0 0.00 0.00 0.00 75 1018.2
20260504010018 17 340 0.0 0.0 0.00 0.00 0.00 75 1017.8
20260504005515 18 340 0.0 0.0 0.00 0.00 0.00 74 1018.0
20260504005012 18 340 0.0 0.0 0.00 0.00 0.00 73 1018.2
20260504004510 18 340 0.0 0.0 0.00 0.00 0.00 72 1018.1
20260504004007 18 340 0.0 0.0 0.00 0.00 0.00 71 1018.0
20260504003503 18 340 0.0 0.0 0.00 0.00 0.00 71 1017.9
20260504003000 19 340 0.0 0.0 0.00 0.00 0.00 72 1017.8
20260504002457 19 340 0.0 0.0 0.00 0.00 0.00 70 1017.9
20260504001954 19 340 0.0 0.0 0.00 0.00 0.00 70 1017.7
20260504001451 20 340 0.0 0.0 0.00 0.00 0.00 69 1017.7
20260504000947 20 340 0.0 0.0 0.00 0.00 0.00 68 1017.9
20260504000445 21 339 0.0 0.0 0.00 0.00 0.00 64 1017.7
20260503235942 21 336 0.0 1.6 0.00 0.00 0.00 62 1017.8
20260503235439 21 341 0.0 0.0 0.00 0.00 0.00 59 1017.8
20260503234937 22 331 0.0 0.0 0.00 0.00 0.00 59 1017.8
20260503234435 22 283 4.8 4.8 0.00 0.00 0.00 55 1018.1
20260503233933 22 289 3.2 3.2 0.00 0.00 0.00 55 1018.0
20260503233429 22 313 1.6 1.6 0.00 0.00 0.00 55 1018.1
20260503232925 22 252 3.2 3.2 0.00 0.00 0.00 53 1018.0
20260503232422 22 278 1.6 1.6 0.00 0.00 0.00 52 1017.9
20260503231920 22 308 1.6 1.6 0.00 0.00 0.00 53 1018.0
20260503231417 22 292 3.2 3.2 0.00 0.00 0.00 52 1018.3
20260503230913 22 207 1.6 3.2 0.00 0.00 0.00 52 1018.2
20260503230410 23 287 3.2 3.2 0.00 0.00 0.00 50 1018.0
20260503225908 23 295 1.6 3.2 0.00 0.00 0.00 50 1018.0
20260503225403 23 242 1.6 3.2 0.00 0.00 0.00 49 1018.2
20260503224900 23 278 4.8 4.8 0.00 0.00 0.00 50 1018.3
20260503224357 23 298 4.8 4.8 0.00 0.00 0.00 50 1018.1
20260503223855 23 303 6.4 8.0 0.00 0.00 0.00 50 1018.2
20260503223353 23 273 6.4 8.0 0.00 0.00 0.00 49 1018.4
20260503222848 23 194 4.8 8.0 0.00 0.00 0.00 49 1018.5
20260503222347 23 268 3.2 3.2 0.00 0.00 0.00 48 1018.3
20260503221844 24 294 6.4 8.0 0.00 0.00 0.00 47 1018.3
20260503221343 24 246 4.8 4.8 0.00 0.00 0.00 46 1018.1
20260503220838 24 249 6.4 8.0 0.00 0.00 0.00 47 1018.5
20260503220335 24 308 1.6 3.2 0.00 0.00 0.00 49 1018.5
20260503215832 24 271 4.8 4.8 0.00 0.00 0.00 47 1018.5
20260503215329 24 265 3.2 3.2 0.00 0.00 0.00 48 1018.6
20260503214827 23 323 8.0 11.3 0.00 0.00 0.00 48 1018.7
20260503214324 24 298 3.2 4.8 0.00 0.00 0.00 47 1018.8
20260503213821 23 255 4.8 8.0 0.00 0.00 0.00 49 1018.7
20260503213319 24 303 3.2 3.2 0.00 0.00 0.00 47 1019.0
20260503212815 24 257 6.4 9.7 0.00 0.00 0.00 47 1019.1
20260503212313 25 260 8.0 12.9 0.00 0.00 0.00 47 1019.1
20260503211810 23 262 6.4 9.7 0.00 0.00 0.00 47 1019.2
20260503211308 23 227 6.4 11.3 0.00 0.00 0.00 47 1019.1
20260503210807 24 312 6.4 9.7 0.00 0.00 0.00 47 1019.2
20260503210305 24 234 1.6 3.2 0.00 0.00 0.00 47 1019.2
20260503205754 25 199 4.8 8.0 0.00 0.00 0.00 47 1019.2
20260503205251 24 273 3.2 4.8 0.00 0.00 0.00 48 1019.2
20260503204747 24 268 4.8 8.0 0.00 0.00 0.00 47 1019.6
20260503204245 23 313 1.6 3.2 0.00 0.00 0.00 45 1019.6
20260503203743 24 237 11.3 12.9 0.00 0.00 0.00 47 1019.8
20260503203240 24 286 6.4 9.7 0.00 0.00 0.00 47 1019.6
20260503202737 24 179 0.0 1.6 0.00 0.00 0.00 47 1019.7
20260503202235 24 257 1.6 3.2 0.00 0.00 0.00 47 1019.7
20260503201732 25 51 1.6 3.2 0.00 0.00 0.00 44 1019.8
20260503201229 25 350 3.2 4.8 0.00 0.00 0.00 44 1019.5
20260503200726 25 341 0.0 0.0 0.00 0.00 0.00 45 1020.0
20260503200222 25 289 8.0 12.9 0.00 0.00 0.00 45 1020.0
20260503195719 25 279 8.0 9.7 0.00 0.00 0.00 46 1020.1
20260503195216 25 314 1.6 1.6 0.00 0.00 0.00 44 1020.1
20260503194713 25 341 1.6 3.2 0.00 0.00 0.00 47 1020.1
20260503194209 24 244 8.0 9.7 0.00 0.00 0.00 47 1020.2
20260503193705 25 243 4.8 4.8 0.00 0.00 0.00 46 1020.3
20260503193201 24 296 3.2 3.2 0.00 0.00 0.00 46 1020.4
20260503192657 25 284 1.6 3.2 0.00 0.00 0.00 44 1020.4
20260503192152 25 357 3.2 3.2 0.00 0.00 0.00 46 1020.5
20260503191649 24 342 0.0 1.6 0.00 0.00 0.00 46 1020.7
20260503191147 24 232 4.8 4.8 0.00 0.00 0.00 47 1020.8
20260503190643 25 253 8.0 11.3 0.00 0.00 0.00 44 1020.7
20260503190140 25 340 1.6 3.2 0.00 0.00 0.00 42 1020.7
20260503185637 25 304 1.6 1.6 0.00 0.00 0.00 43 1020.9
20260503185132 25 335 0.0 0.0 0.00 0.00 0.00 45 1021.0
20260503184627 25 258 4.8 4.8 0.00 0.00 0.00 45 1020.8
20260503184124 24 299 4.8 8.0 0.00 0.00 0.00 46 1020.9
20260503183621 25 337 0.0 1.6 0.00 0.00 0.00 44 1021.3
20260503183118 25 234 4.8 4.8 0.00 0.00 0.00 43 1021.3
20260503182616 27 332 1.6 1.6 0.00 0.00 0.00 39 1021.4
20260503182114 26 356 0.0 1.6 0.00 0.00 0.00 37 1021.5
20260503181611 25 18 0.0 0.0 0.00 0.00 0.00 40 1021.6
20260503181108 25 9 1.6 1.6 0.00 0.00 0.00 40 1021.5
20260503180605 25 354 1.6 1.6 0.00 0.00 0.00 42 1021.5
20260503180103 25 310 1.6 3.2 0.00 0.00 0.00 44 1021.4
20260503175559 25 46 0.0 1.6 0.00 0.00 0.00 39 1021.4
20260503175056 25 93 1.6 1.6 0.00 0.00 0.00 38 1021.6
20260503174553 25 173 1.6 1.6 0.00 0.00 0.00 42 1021.7
20260503174050 25 64 1.6 1.6 0.00 0.00 0.00 41 1021.8
20260503173545 25 21 0.0 0.0 0.00 0.00 0.00 44 1021.8
20260503173041 25 39 1.6 3.2 0.00 0.00 0.00 42 1021.8
20260503172539 23 352 0.0 1.6 0.00 0.00 0.00 43 1022.1
20260503172036 23 44 0.0 1.6 0.00 0.00 0.00 42 1022.2
20260503171532 25 29 0.0 0.0 0.00 0.00 0.00 41 1022.3
20260503171030 25 4 0.0 0.0 0.00 0.00 0.00 43 1022.4
20260503170526 25 17 1.6 1.6 0.00 0.00 0.00 42 1022.6
20260503150918 23 29 0.0 1.6 0.00 0.00 0.00 45 1022.8
20260503150415 23 35 0.0 0.0 0.00 0.00 0.00 46 1022.9